Погода в Баакубе

Ирак     33°44′32″N   44°38′42″E
темп.,
°C
ветер,
м/с
пор.,
м/с
влажн.,
%
обл.,
%
осадки,
мм/ч
давл.,
гПа
погр.,
м
10 апреля, сб
сб1000:00+26сз6102498 0.0 1002164
03:00+23ссз3331100 0.0 100238
06:00+22юз3332100 0.0 100443
09:00+26ююз362498 0.0 1006548
12:00+32ююз571454 0.0 10051466
15:00+35ююз591071 0.0 10023254
18:00+28з9112215 0.0 1004527
21:00+23зсз493410 0.1 1008189
11 апреля, вс
вс1100:00+21с58481 0.6 1008137
03:00+20с58470 0.6 1009141
06:00+17сз913370 0.0 1011339
09:00+21сз99300 0.0 1014686
12:00+25зсз77230 0.0 10141253
15:00+25зсз76200 0.0 10141513
18:00+22зсз78182 0.0 1015703
21:00+19сз48210 0.0 1016142
12 апреля, пн
пн1200:00+17с46250 0.0 101784
03:00+16ссв452799 0.0 101661
06:00+16ссв442881 0.0 101651
09:00+23с34175 0.0 10171015
12:00+26зсз341416 0.0 10161777
15:00+28зсз44115 0.0 10142180
18:00+26зсз34145 0.0 101355
21:00+21сз471918 0.0 1015100
13 апреля, вт
вт1300:00+19с45210 0.0 101560
03:00+18ссв46240 0.0 101376
06:00+18ссв33230 0.0 101319
09:00+24зсз54160 0.0 1015408
12:00+28з55130 0.0 10141761
15:00+29з66120 0.0 10122077
18:00+25з710140 0.0 1013400
21:00+21зсз612210 0.0 1016275
14 апреля, ср
ср1400:00+18зсз511290 0.0 1016220
03:00+17ссз49314 0.0 1016167
06:00+15ссз483434 0.0 1017134
09:00+22ссз66236 0.0 10181167
12:00+26ссз66165 0.0 10171810
15:00+27сз77140 0.0 10152236
18:00+25ссз57150 0.0 1015201
21:00+21ссз46210 0.0 101683